Dades meteomassalio
Diari Summary for Juny 10, 2017 Units:  Metric    English   Both
« Previous Day
Next Day »
Diari Semanal Mensual Anual Personalitzat
  Maxima: Minima: Mijana:
Temperatura: 32.7 °C 15.8 °C 24.5 °C
Rosada: 17.4 °C 13.2 °C 15.5 °C
Humitat: 87 % 39 % 60 %
Velocitat del vent: 19.3 km/h 0.0 km/h 3.9 km/h
Racha vent: 19.3 km/h - -
Vent:- - East
Pressio: 1017.5 hPa 1014.1 hPa -
Pluja: 0.0 mm    
Historical Graphs
 
 
Tabular Data for Juny 10, 2017
Time Temperature Dew Point Pressure Wind Wind Speed Wind Gust Humidity Rainfall Rate (Hourly) solar Conditions
00:03 21.4 °C 14.3 °C 1015.1 hPa Calm     64 % 0.0 mm 0.0 W/m2 CLR
00:08 21.4 °C 14.1 °C 1015.1 hPa Calm     63 % 0.0 mm 0.0 W/m2 CLR
00:13 21.4 °C 14.1 °C 1015.1 hPa Calm     63 % 0.0 mm 0.0 W/m2 CLR
00:18 21.4 °C 14.3 °C 1015.1 hPa Calm     64 % 0.0 mm 0.0 W/m2 CLR
00:23 21.2 °C 14.4 °C 1015.1 hPa Calm     65 % 0.0 mm 0.0 W/m2 CLR
00:28 21.1 °C 14.4 °C 1015.1 hPa Calm     66 % 0.0 mm 0.0 W/m2 CLR
00:33 20.8 °C 14.5 °C 1015.1 hPa Calm     67 % 0.0 mm 0.0 W/m2 CLR
00:38 20.6 °C 14.3 °C 1015.1 hPa Calm     67 % 0.0 mm 0.0 W/m2 CLR
00:43 20.5 °C 14.4 °C 1015.1 hPa Calm     68 % 0.0 mm 0.0 W/m2 CLR
00:48 20.4 °C 14.6 °C 1015.1 hPa Calm     69 % 0.0 mm 0.0 W/m2 CLR
00:53 20.4 °C 14.5 °C 1015.1 hPa Calm     69 % 0.0 mm 0.0 W/m2 CLR
00:58 20.3 °C 14.4 °C 1015.1 hPa Calm     69 % 0.0 mm 0.0 W/m2 CLR
01:03 20.2 °C 14.5 °C 1015.5 hPa Calm     70 % 0.0 mm 0.0 W/m2 CLR
01:08 20.1 °C 14.4 °C 1015.5 hPa Calm     70 % 0.0 mm 0.0 W/m2 CLR
01:13 20.1 °C 14.4 °C 1015.5 hPa Calm     70 % 0.0 mm 0.0 W/m2 CLR
01:18 20.1 °C 14.4 °C 1015.5 hPa Calm     70 % 0.0 mm 0.0 W/m2 CLR
01:23 20.1 °C 14.7 °C 1015.5 hPa Calm     71 % 0.0 mm 0.0 W/m2 CLR
01:28 20.0 °C 15.0 °C 1015.5 hPa Calm     73 % 0.0 mm 0.0 W/m2 CLR
01:33 19.9 °C 14.9 °C 1015.5 hPa ESE 5.6 km/h 5.6 km/h 73 % 0.0 mm 0.0 W/m2 CLR
01:38 20.0 °C 15.0 °C 1015.5 hPa Calm     73 % 0.0 mm 0.0 W/m2 CLR
01:43 19.9 °C 15.2 °C 1015.5 hPa Calm     74 % 0.0 mm 0.0 W/m2 CLR
01:44 19.9 °C 15.2 °C 1015.5 hPa Calm     74 % 0.0 mm 0.0 W/m2 CLR
01:49 19.8 °C 15.1 °C 1015.5 hPa Calm     74 % 0.0 mm 0.0 W/m2 CLR
01:54 19.7 °C 15.2 °C 1015.8 hPa Calm     75 % 0.0 mm 0.0 W/m2 CLR
01:59 19.7 °C 15.3 °C 1015.8 hPa Calm     76 % 0.0 mm 0.0 W/m2 CLR
02:04 19.7 °C 15.4 °C 1015.8 hPa Calm     76 % 0.0 mm 0.0 W/m2 CLR
02:09 19.7 °C 15.4 °C 1015.8 hPa Calm     76 % 0.0 mm 0.0 W/m2 CLR
02:14 19.7 °C 15.4 °C 1015.8 hPa Calm     76 % 0.0 mm 0.0 W/m2 CLR
02:19 19.6 °C 15.2 °C 1015.8 hPa Calm     76 % 0.0 mm 0.0 W/m2 CLR
02:24 19.4 °C 15.1 °C 1015.8 hPa Calm     76 % 0.0 mm 0.0 W/m2 CLR
02:29 19.2 °C 14.8 °C 1015.8 hPa Calm     76 % 0.0 mm 0.0 W/m2 CLR
02:34 18.9 °C 14.8 °C 1015.8 hPa Calm     77 % 0.0 mm 0.0 W/m2 CLR
02:39 18.8 °C 14.9 °C 1015.8 hPa Calm     78 % 0.0 mm 0.0 W/m2 CLR
02:44 18.7 °C 14.8 °C 1015.8 hPa Calm     78 % 0.0 mm 0.0 W/m2 CLR
02:49 18.6 °C 14.8 °C 1015.8 hPa Calm     79 % 0.0 mm 0.0 W/m2 CLR
02:54 18.4 °C 14.9 °C 1015.8 hPa Calm     80 % 0.0 mm 0.0 W/m2 CLR
02:59 18.3 °C 15.0 °C 1015.8 hPa Calm     81 % 0.0 mm 0.0 W/m2 CLR
03:04 18.2 °C 14.9 °C 1015.8 hPa Calm     81 % 0.0 mm 0.0 W/m2 CLR
03:09 18.1 °C 14.7 °C 1015.8 hPa Calm     81 % 0.0 mm 0.0 W/m2 CLR
03:14 17.9 °C 14.6 °C 1015.8 hPa Calm     81 % 0.0 mm 0.0 W/m2 CLR
03:19 17.9 °C 14.8 °C 1015.8 hPa Calm     82 % 0.0 mm 0.0 W/m2 CLR
03:24 17.8 °C 14.7 °C 1015.8 hPa Calm     82 % 0.0 mm 0.0 W/m2 CLR
03:29 17.7 °C 14.6 °C 1015.8 hPa Calm     82 % 0.0 mm 0.0 W/m2 CLR
03:34 17.6 °C 14.5 °C 1015.8 hPa Calm     82 % 0.0 mm 0.0 W/m2 CLR
03:39 17.5 °C 14.4 °C 1015.8 hPa Calm     82 % 0.0 mm 0.0 W/m2 CLR
03:44 17.4 °C 14.4 °C 1015.8 hPa Calm     83 % 0.0 mm 0.0 W/m2 CLR
03:49 17.3 °C 14.4 °C 1015.8 hPa Calm     83 % 0.0 mm 0.0 W/m2 CLR
03:54 17.3 °C 14.4 °C 1015.8 hPa Calm     83 % 0.0 mm 0.0 W/m2 CLR
03:59 17.2 °C 14.5 °C 1015.8 hPa Calm     84 % 0.0 mm 0.0 W/m2 CLR
04:04 17.1 °C 14.4 °C 1015.8 hPa Calm     84 % 0.0 mm 0.0 W/m2 CLR
04:10 17.0 °C 14.4 °C 1015.8 hPa Calm     85 % 0.0 mm 0.0 W/m2 CLR
04:15 17.0 °C 14.4 °C 1015.8 hPa Calm     85 % 0.0 mm 0.0 W/m2 CLR
04:20 16.9 °C 14.4 °C 1015.8 hPa Calm     85 % 0.0 mm 0.0 W/m2 CLR
04:25 16.9 °C 14.3 °C 1015.8 hPa Calm     85 % 0.0 mm 0.0 W/m2 CLR
04:30 16.8 °C 14.3 °C 1015.8 hPa Calm     85 % 0.0 mm 0.0 W/m2 CLR
04:35 16.8 °C 14.3 °C 1015.8 hPa Calm     85 % 0.0 mm 0.0 W/m2 CLR
04:40 16.8 °C 14.5 °C 1015.8 hPa Calm     86 % 0.0 mm 0.0 W/m2 CLR
04:45 16.7 °C 14.4 °C 1015.8 hPa Calm     86 % 0.0 mm 0.0 W/m2 CLR
04:50 16.7 °C 14.3 °C 1015.8 hPa Calm     86 % 0.0 mm 0.0 W/m2 CLR
04:55 16.7 °C 14.3 °C 1015.8 hPa Calm     86 % 0.0 mm 0.0 W/m2 CLR
05:00 16.7 °C 14.3 °C 1015.8 hPa Calm     86 % 0.0 mm 0.0 W/m2 CLR
05:05 16.6 °C 14.2 °C 1016.1 hPa Calm     86 % 0.0 mm 0.0 W/m2 CLR
05:10 16.5 °C 13.9 °C 1016.1 hPa Calm     85 % 0.0 mm 0.0 W/m2 CLR
05:15 16.4 °C 14.1 °C 1016.1 hPa Calm     86 % 0.0 mm 0.0 W/m2 CLR
05:20 16.3 °C 13.9 °C 1016.1 hPa West 1.9 km/h   86 % 0.0 mm 0.0 W/m2 CLR
05:25 16.2 °C 13.9 °C 1016.1 hPa Calm     86 % 0.0 mm 0.0 W/m2 CLR
05:30 16.2 °C 13.9 °C 1015.8 hPa Calm     86 % 0.0 mm 0.0 W/m2 CLR
05:35 16.2 °C 14.1 °C 1016.1 hPa Calm     87 % 0.0 mm 0.0 W/m2 CLR
05:40 16.2 °C 13.9 °C 1016.1 hPa Calm     86 % 0.0 mm 0.0 W/m2 CLR
05:45 16.2 °C 13.8 °C 1016.1 hPa Calm     86 % 0.0 mm 0.0 W/m2 CLR
05:50 16.1 °C 13.8 °C 1016.1 hPa Calm     86 % 0.0 mm 0.0 W/m2 CLR
05:55 16.1 °C 13.8 °C 1016.1 hPa Calm     86 % 0.0 mm 0.0 W/m2 CLR
06:00 16.1 °C 13.8 °C 1016.1 hPa Calm     86 % 0.0 mm 0.0 W/m2 CLR
06:05 16.0 °C 13.7 °C 1016.1 hPa Calm     86 % 0.0 mm 0.0 W/m2 CLR
06:10 16.0 °C 13.7 °C 1016.5 hPa Calm     86 % 0.0 mm 0.0 W/m2 CLR
06:15 15.9 °C 13.6 °C 1016.5 hPa Calm     86 % 0.0 mm 0.0 W/m2 CLR
06:16 15.9 °C 13.6 °C 1016.5 hPa Calm     86 % 0.0 mm 0.0 W/m2 OVC
06:21 15.9 °C 13.6 °C 1016.5 hPa Calm     86 % 0.0 mm 0.0 W/m2 OVC
06:26 15.9 °C 13.6 °C 1016.5 hPa Calm     86 % 0.0 mm 0.0 W/m2 OVC
06:31 15.8 °C 13.5 °C 1016.5 hPa Calm     86 % 0.0 mm 5.0 W/m2 OVC
06:36 15.8 °C 13.4 °C 1016.5 hPa Calm     86 % 0.0 mm 9.0 W/m2 BKN
06:41 15.8 °C 13.6 °C 1016.8 hPa Calm     87 % 0.0 mm 14.0 W/m2 BKN
06:46 15.8 °C 13.4 °C 1016.8 hPa Calm     86 % 0.0 mm 18.0 W/m2 BKN
06:51 15.8 °C 13.4 °C 1016.8 hPa Calm     86 % 0.0 mm 25.0 W/m2 BKN
06:56 15.8 °C 13.4 °C 1016.8 hPa Calm     86 % 0.0 mm 30.0 W/m2 BKN
07:01 15.8 °C 13.7 °C 1016.8 hPa Calm     87 % 0.0 mm 35.0 W/m2 BKN
07:06 15.9 °C 13.7 °C 1016.8 hPa Calm     87 % 0.0 mm 40.0 W/m2 BKN
07:11 15.9 °C 13.8 °C 1016.8 hPa Calm     87 % 0.0 mm 47.0 W/m2 SCT
07:16 16.0 °C 13.8 °C 1017.2 hPa Calm     87 % 0.0 mm 62.0 W/m2 SCT
07:21 16.2 °C 14.0 °C 1017.2 hPa Calm     87 % 0.0 mm 70.0 W/m2 FEW
07:26 16.3 °C 14.2 °C 1017.2 hPa Calm     87 % 0.0 mm 77.0 W/m2 FEW
07:31 16.5 °C 14.2 °C 1017.2 hPa Calm     86 % 0.0 mm 91.0 W/m2 FEW
07:37 16.7 °C 14.4 °C 1017.2 hPa Calm     86 % 0.0 mm 102.0 W/m2 CLR
07:42 16.9 °C 14.6 °C 1017.2 hPa Calm     86 % 0.0 mm 109.0 W/m2 CLR
07:47 17.2 °C 14.7 °C 1017.2 hPa Calm     85 % 0.0 mm 125.0 W/m2 CLR
07:52 17.5 °C 14.8 °C 1017.2 hPa Calm     84 % 0.0 mm 118.0 W/m2 CLR
07:57 17.7 °C 14.8 °C 1017.2 hPa Calm     83 % 0.0 mm 116.0 W/m2 CLR
08:02 17.8 °C 14.9 °C 1017.2 hPa Calm     83 % 0.0 mm 128.0 W/m2 CLR
08:07 18.2 °C 15.4 °C 1017.5 hPa SSW 3.7 km/h 3.7 km/h 84 % 0.0 mm 151.0 W/m2 CLR
08:12 18.4 °C 15.5 °C 1017.5 hPa SW 5.6 km/h 5.6 km/h 83 % 0.0 mm 188.0 W/m2 CLR
08:17 18.8 °C 15.8 °C 1017.5 hPa WSW 7.4 km/h 7.4 km/h 83 % 0.0 mm 207.0 W/m2 CLR
08:22 19.0 °C 15.8 °C 1017.5 hPa WSW 5.6 km/h   82 % 0.0 mm 229.0 W/m2 CLR
08:27 19.3 °C 16.2 °C 1017.5 hPa Calm     82 % 0.0 mm 251.0 W/m2 CLR
08:32 19.6 °C 16.3 °C 1017.5 hPa Calm     81 % 0.0 mm 267.0 W/m2 CLR
08:33 19.7 °C 16.4 °C 1017.5 hPa Calm     81 % 0.0 mm 269.0 W/m2 CLR
08:38 20.1 °C 16.3 °C 1017.5 hPa Calm     79 % 0.0 mm 274.0 W/m2 CLR
08:43 20.4 °C 16.3 °C 1017.5 hPa Calm     77 % 0.0 mm 292.0 W/m2 CLR
08:48 20.8 °C 16.4 °C 1017.5 hPa Calm     76 % 0.0 mm 302.0 W/m2 CLR
08:53 21.1 °C 16.5 °C 1017.5 hPa Calm     75 % 0.0 mm 323.0 W/m2 CLR
08:58 21.4 °C 16.6 °C 1017.5 hPa Calm     74 % 0.0 mm 339.0 W/m2 CLR
09:03 21.6 °C 16.8 °C 1017.5 hPa Calm     74 % 0.0 mm 348.0 W/m2 CLR
09:08 21.7 °C 16.9 °C 1017.5 hPa Calm     74 % 0.0 mm 369.0 W/m2 CLR
09:13 22.0 °C 16.9 °C 1017.5 hPa Calm     73 % 0.0 mm 350.0 W/m2 CLR
09:18 22.1 °C 16.8 °C 1017.5 hPa Calm     72 % 0.0 mm 367.0 W/m2 CLR
09:23 22.1 °C 16.6 °C 1017.5 hPa Calm     71 % 0.0 mm 353.0 W/m2 CLR
09:28 22.3 °C 17.0 °C 1017.5 hPa Calm     72 % 0.0 mm 396.0 W/m2 CLR
09:33 22.5 °C 17.0 °C 1017.5 hPa Calm     71 % 0.0 mm 403.0 W/m2 CLR
09:38 22.6 °C 16.6 °C 1017.5 hPa Calm     69 % 0.0 mm 461.0 W/m2 CLR
09:43 22.8 °C 16.8 °C 1017.5 hPa Calm     69 % 0.0 mm 485.0 W/m2 CLR
09:48 23.2 °C 17.0 °C 1017.5 hPa Calm     68 % 0.0 mm 494.0 W/m2 CLR
09:53 23.4 °C 16.9 °C 1017.5 hPa SW 19.3 km/h 19.3 km/h 67 % 0.0 mm 510.0 W/m2 CLR
09:58 23.4 °C 16.7 °C 1017.5 hPa Calm     66 % 0.0 mm 504.0 W/m2 CLR
10:03 23.5 °C 16.8 °C 1017.5 hPa Calm     66 % 0.0 mm 524.0 W/m2 CLR
10:08 23.8 °C 16.8 °C 1017.5 hPa Calm     65 % 0.0 mm 541.0 W/m2 CLR
10:13 24.1 °C 17.1 °C 1017.5 hPa Calm     65 % 0.0 mm 561.0 W/m2 CLR
10:18 24.4 °C 16.9 °C 1017.5 hPa ESE 5.6 km/h 5.6 km/h 63 % 0.0 mm 585.0 W/m2 CLR
10:24 24.4 °C 17.1 °C 1017.5 hPa Calm   1.8 km/h 64 % 0.0 mm 591.0 W/m2 CLR
10:29 24.4 °C 16.7 °C 1017.5 hPa Calm     62 % 0.0 mm 577.0 W/m2 CLR
10:34 24.7 °C 16.9 °C 1017.5 hPa Calm     62 % 0.0 mm 582.0 W/m2 CLR
10:39 24.8 °C 16.6 °C 1017.5 hPa Calm     60 % 0.0 mm 615.0 W/m2 CLR
10:44 25.0 °C 16.2 °C 1017.5 hPa Calm     58 % 0.0 mm 636.0 W/m2 CLR
10:49 25.0 °C 16.4 °C 1017.5 hPa Calm     59 % 0.0 mm 640.0 W/m2 CLR
10:54 25.2 °C 16.4 °C 1017.5 hPa Calm     58 % 0.0 mm 656.0 W/m2 CLR
10:59 25.3 °C 16.2 °C 1017.5 hPa Calm     57 % 0.0 mm 659.0 W/m2 CLR
11:00 25.3 °C 15.9 °C 1017.5 hPa East 3.2 km/h 3.2 km/h 56 % 0.0 mm 661.0 W/m2 CLR
11:05 25.3 °C 15.9 °C 1017.5 hPa ENE 7.4 km/h 7.4 km/h 56 % 0.0 mm 684.0 W/m2 CLR
11:10 25.3 °C 16.2 °C 1017.5 hPa Calm     57 % 0.0 mm 694.0 W/m2 CLR
11:15 25.8 °C 15.5 °C 1017.5 hPa Calm     53 % 0.0 mm 700.0 W/m2 CLR
11:20 26.0 °C 15.4 °C 1017.5 hPa ENE 1.9 km/h   52 % 0.0 mm 708.0 W/m2 CLR
11:25 26.2 °C 15.0 °C 1017.5 hPa Calm     50 % 0.0 mm 729.0 W/m2 CLR
11:30 26.3 °C 13.4 °C 1017.5 hPa Calm     45 % 0.0 mm 744.0 W/m2 CLR
11:35 26.4 °C 13.2 °C 1017.2 hPa Calm     44 % 0.0 mm 752.0 W/m2 CLR
11:40 26.8 °C 14.2 °C 1017.5 hPa Calm     46 % 0.0 mm 761.0 W/m2 CLR
11:45 27.2 °C 14.9 °C 1017.5 hPa Calm     47 % 0.0 mm 775.0 W/m2 CLR
11:50 27.4 °C 14.7 °C 1017.2 hPa Calm     46 % 0.0 mm 784.0 W/m2 CLR
11:55 27.4 °C 15.1 °C 1017.5 hPa Calm     47 % 0.0 mm 793.0 W/m2 CLR
12:00 27.6 °C 16.2 °C 1017.2 hPa Calm     50 % 0.0 mm 802.0 W/m2 CLR
12:05 27.7 °C 16.1 °C 1017.2 hPa Calm     49 % 0.0 mm 810.0 W/m2 CLR
12:10 28.0 °C 16.6 °C 1017.2 hPa NE 12.9 km/h 12.9 km/h 50 % 0.0 mm 810.0 W/m2 CLR
12:20 28.1 °C 17.0 °C 1017.2 hPa NNE 7.4 km/h 7.4 km/h 51 % 0.0 mm 830.0 W/m2 CLR
12:25 28.3 °C 16.9 °C 1017.2 hPa NE 8.0 km/h 8.0 km/h 50 % 0.0 mm 838.0 W/m2 CLR
12:30 28.4 °C 16.7 °C 1017.2 hPa NE 14.8 km/h 14.8 km/h 49 % 0.0 mm 844.0 W/m2 CLR
12:35 28.4 °C 15.7 °C 1017.2 hPa NE 13.0 km/h 13.0 km/h 46 % 0.0 mm 846.0 W/m2 CLR
12:40 28.4 °C 16.4 °C 1016.8 hPa Calm     48 % 0.0 mm 854.0 W/m2 CLR
12:45 28.7 °C 15.6 °C 1016.8 hPa NE 14.5 km/h 14.5 km/h 45 % 0.0 mm 870.0 W/m2 CLR
12:50 28.7 °C 15.6 °C 1016.8 hPa NNW 13.0 km/h 13.0 km/h 45 % 0.0 mm 872.0 W/m2 CLR
12:55 28.9 °C 15.4 °C 1016.8 hPa NNW 5.6 km/h 5.6 km/h 44 % 0.0 mm 884.0 W/m2 CLR
13:00 29.1 °C 15.6 °C 1016.8 hPa NE 11.3 km/h 11.3 km/h 44 % 0.0 mm 886.0 W/m2 CLR
13:05 29.3 °C 15.8 °C 1016.8 hPa NE 16.1 km/h 16.1 km/h 44 % 0.0 mm 888.0 W/m2 CLR
13:10 29.4 °C 15.9 °C 1016.8 hPa NNE 9.3 km/h 9.3 km/h 44 % 0.0 mm 893.0 W/m2 CLR
13:15 29.4 °C 16.2 °C 1016.8 hPa North 7.4 km/h 7.4 km/h 45 % 0.0 mm 898.0 W/m2 CLR
13:20 29.5 °C 16.7 °C 1016.8 hPa ENE 11.1 km/h 11.1 km/h 46 % 0.0 mm 905.0 W/m2 CLR
13:25 29.5 °C 16.3 °C 1016.5 hPa NNE 11.1 km/h 11.1 km/h 45 % 0.0 mm 909.0 W/m2 CLR
13:30 29.7 °C 16.5 °C 1016.5 hPa NE 14.8 km/h 14.8 km/h 45 % 0.0 mm 911.0 W/m2 CLR
13:35 29.9 °C 16.0 °C 1016.5 hPa NNE 13.0 km/h 13.0 km/h 43 % 0.0 mm 916.0 W/m2 CLR
13:40 29.9 °C 15.9 °C 1016.5 hPa Calm     43 % 0.0 mm 911.0 W/m2 CLR
13:45 30.2 °C 15.9 °C 1016.5 hPa ENE 11.1 km/h 11.1 km/h 42 % 0.0 mm 911.0 W/m2 CLR
13:50 30.5 °C 15.8 °C 1016.5 hPa NNE 9.3 km/h 9.3 km/h 41 % 0.0 mm 916.0 W/m2 CLR
13:55 30.6 °C 15.8 °C 1016.5 hPa NNE 5.6 km/h 5.6 km/h 41 % 0.0 mm 926.0 W/m2 CLR
14:00 30.7 °C 15.9 °C 1016.1 hPa NE 12.9 km/h 12.9 km/h 41 % 0.0 mm 909.0 W/m2 CLR
14:05 30.8 °C 16.4 °C 1016.1 hPa NE 14.8 km/h 14.8 km/h 42 % 0.0 mm 902.0 W/m2 CLR
14:10 30.9 °C 16.6 °C 1016.1 hPa ENE 9.3 km/h 9.3 km/h 42 % 0.0 mm 898.0 W/m2 CLR
14:15 31.0 °C 16.6 °C 1016.1 hPa NNE 7.4 km/h 7.4 km/h 42 % 0.0 mm 882.0 W/m2 CLR
14:20 31.2 °C 16.7 °C 1016.1 hPa ESE 14.8 km/h 14.8 km/h 42 % 0.0 mm 875.0 W/m2 CLR
14:25 31.0 °C 16.9 °C 1015.8 hPa ESE 11.1 km/h 11.1 km/h 43 % 0.0 mm 835.0 W/m2 CLR
14:30 31.0 °C 16.9 °C 1015.8 hPa East 5.6 km/h 5.6 km/h 43 % 0.0 mm 863.0 W/m2 CLR
14:35 30.9 °C 16.6 °C 1015.8 hPa ENE 9.3 km/h 9.3 km/h 42 % 0.0 mm 867.0 W/m2 CLR
14:40 30.9 °C 16.2 °C 1015.8 hPa East 9.3 km/h 9.3 km/h 41 % 0.0 mm 831.0 W/m2 CLR
14:45 31.2 °C 15.6 °C 1015.8 hPa ESE 11.3 km/h 11.3 km/h 39 % 0.0 mm 854.0 W/m2 CLR
14:50 31.1 °C 15.9 °C 1015.8 hPa NE 8.0 km/h 8.0 km/h 40 % 0.0 mm 865.0 W/m2 CLR
14:55 31.2 °C 15.6 °C 1015.8 hPa East 7.4 km/h 7.4 km/h 39 % 0.0 mm 847.0 W/m2 CLR
15:00 31.1 °C 15.4 °C 1015.5 hPa ENE 14.8 km/h 14.8 km/h 39 % 0.0 mm 872.0 W/m2 CLR
15:05 31.2 °C 16.0 °C 1015.5 hPa East 9.3 km/h 9.3 km/h 40 % 0.0 mm 888.0 W/m2 CLR
15:10 31.2 °C 15.6 °C 1015.5 hPa Calm     39 % 0.0 mm 886.0 W/m2 CLR
15:15 31.6 °C 16.8 °C 1015.5 hPa ESE 11.3 km/h 11.3 km/h 41 % 0.0 mm 877.0 W/m2 CLR
15:20 31.7 °C 17.2 °C 1015.5 hPa ENE 9.3 km/h 9.3 km/h 42 % 0.0 mm 868.0 W/m2 CLR
15:21 31.7 °C 17.2 °C 1015.5 hPa NE 9.3 km/h 9.3 km/h 42 % 0.0 mm 868.0 W/m2 CLR
15:26 31.8 °C 16.9 °C 1015.5 hPa ESE 14.8 km/h 14.8 km/h 41 % 0.0 mm 865.0 W/m2 CLR
15:31 31.9 °C 17.0 °C 1015.5 hPa NNE 14.8 km/h 14.8 km/h 41 % 0.0 mm 856.0 W/m2 CLR
15:36 31.7 °C 17.2 °C 1015.5 hPa ENE 4.8 km/h 4.8 km/h 42 % 0.0 mm 849.0 W/m2 CLR
15:41 31.9 °C 17.4 °C 1015.1 hPa NE 14.8 km/h 14.8 km/h 42 % 0.0 mm 846.0 W/m2 CLR
15:46 32.3 °C 16.9 °C 1015.1 hPa ESE 3.2 km/h   40 % 0.0 mm 835.0 W/m2 CLR
15:51 32.3 °C 16.6 °C 1015.1 hPa ENE 4.8 km/h 4.8 km/h 39 % 0.0 mm 828.0 W/m2 CLR
15:56 32.3 °C 17.3 °C 1015.1 hPa ESE 11.3 km/h 11.3 km/h 41 % 0.0 mm 821.0 W/m2 CLR
16:01 32.0 °C 16.7 °C 1015.1 hPa ESE 9.3 km/h 9.3 km/h 40 % 0.0 mm 814.0 W/m2 CLR
16:06 32.1 °C 16.8 °C 1015.1 hPa North 9.3 km/h 9.3 km/h 40 % 0.0 mm 802.0 W/m2 CLR
16:11 32.4 °C 17.1 °C 1015.1 hPa North 18.5 km/h 18.5 km/h 40 % 0.0 mm 793.0 W/m2 CLR
16:16 32.5 °C 16.8 °C 1015.1 hPa NNE 9.3 km/h 9.3 km/h 39 % 0.0 mm 788.0 W/m2 CLR
16:21 32.7 °C 16.9 °C 1014.8 hPa ENE 9.3 km/h 9.3 km/h 39 % 0.0 mm 773.0 W/m2 CLR
16:26 32.4 °C 16.7 °C 1014.8 hPa Calm     39 % 0.0 mm 766.0 W/m2 CLR
16:36 32.4 °C 17.1 °C 1014.8 hPa ESE 9.3 km/h 9.3 km/h 40 % 0.0 mm 745.0 W/m2 CLR
16:41 32.3 °C 17.4 °C 1014.8 hPa East 13.0 km/h 13.0 km/h 41 % 0.0 mm 735.0 W/m2 CLR
16:46 32.2 °C 16.9 °C 1014.8 hPa ESE 7.4 km/h 7.4 km/h 40 % 0.0 mm 721.0 W/m2 CLR
16:51 32.1 °C 16.8 °C 1014.8 hPa East 12.9 km/h 12.9 km/h 40 % 0.0 mm 710.0 W/m2 CLR
16:56 32.1 °C 16.8 °C 1014.8 hPa ESE 14.5 km/h 14.5 km/h 40 % 0.0 mm 701.0 W/m2 CLR
17:01 32.2 °C 16.9 °C 1014.4 hPa East 14.8 km/h 14.8 km/h 40 % 0.0 mm 691.0 W/m2 CLR
17:06 32.2 °C 16.5 °C 1014.4 hPa East 18.5 km/h 18.5 km/h 39 % 0.0 mm 677.0 W/m2 CLR
17:11 32.2 °C 16.8 °C 1014.4 hPa ENE 11.1 km/h 11.1 km/h 40 % 0.0 mm 664.0 W/m2 CLR
17:16 32.4 °C 17.1 °C 1014.4 hPa East 13.0 km/h 13.0 km/h 40 % 0.0 mm 654.0 W/m2 CLR
17:21 32.4 °C 16.7 °C 1014.4 hPa ENE 16.7 km/h 16.7 km/h 39 % 0.0 mm 640.0 W/m2 CLR
17:26 32.4 °C 16.7 °C 1014.4 hPa East 7.4 km/h 7.4 km/h 39 % 0.0 mm 624.0 W/m2 CLR
17:31 32.3 °C 16.6 °C 1014.4 hPa East 11.1 km/h 11.1 km/h 39 % 0.0 mm 612.0 W/m2 CLR
17:36 32.4 °C 16.7 °C 1014.4 hPa East 13.0 km/h 13.0 km/h 39 % 0.0 mm 599.0 W/m2 CLR
17:41 32.3 °C 16.6 °C 1014.4 hPa NE 13.0 km/h 13.0 km/h 39 % 0.0 mm 587.0 W/m2 CLR
17:46 32.4 °C 16.7 °C 1014.4 hPa ENE 9.3 km/h 9.3 km/h 39 % 0.0 mm 570.0 W/m2 CLR
17:51 32.4 °C 17.1 °C 1014.4 hPa East 13.0 km/h 13.0 km/h 40 % 0.0 mm 561.0 W/m2 CLR
17:56 32.3 °C 16.6 °C 1014.4 hPa NE 5.6 km/h 5.6 km/h 39 % 0.0 mm 547.0 W/m2 CLR
18:01 32.3 °C 16.9 °C 1014.4 hPa ESE 14.8 km/h 14.8 km/h 40 % 0.0 mm 536.0 W/m2 CLR
18:06 32.1 °C 16.8 °C 1014.4 hPa ESE 9.7 km/h 9.7 km/h 40 % 0.0 mm 522.0 W/m2 CLR
18:11 32.1 °C 16.4 °C 1014.4 hPa ESE 14.8 km/h 14.8 km/h 39 % 0.0 mm 504.0 W/m2 CLR
18:16 32.1 °C 16.8 °C 1014.1 hPa SE 14.8 km/h 14.8 km/h 40 % 0.0 mm 489.0 W/m2 CLR
18:21 31.9 °C 16.6 °C 1014.4 hPa ESE 11.3 km/h 11.3 km/h 40 % 0.0 mm 476.0 W/m2 CLR
18:26 31.8 °C 16.2 °C 1014.1 hPa East 16.7 km/h 16.7 km/h 39 % 0.0 mm 462.0 W/m2 CLR
18:31 31.8 °C 16.1 °C 1014.1 hPa ESE 16.1 km/h 16.1 km/h 39 % 0.0 mm 452.0 W/m2 CLR
18:36 31.6 °C 15.9 °C 1014.1 hPa ESE 16.7 km/h 16.7 km/h 39 % 0.0 mm 431.0 W/m2 CLR
18:41 31.5 °C 16.3 °C 1014.1 hPa East 11.3 km/h 11.3 km/h 40 % 0.0 mm 415.0 W/m2 CLR
18:46 31.4 °C 16.2 °C 1014.1 hPa East 16.7 km/h 16.7 km/h 40 % 0.0 mm 401.0 W/m2 CLR
18:51 31.3 °C 16.1 °C 1014.1 hPa ESE 18.5 km/h 18.5 km/h 40 % 0.0 mm 387.0 W/m2 CLR
18:56 31.2 °C 15.9 °C 1014.1 hPa East 13.0 km/h 13.0 km/h 40 % 0.0 mm 369.0 W/m2 CLR
19:01 31.2 °C 15.9 °C 1014.1 hPa ESE 13.0 km/h 13.0 km/h 40 % 0.0 mm 355.0 W/m2 CLR
19:06 31.1 °C 15.9 °C 1014.1 hPa ESE 14.8 km/h 14.8 km/h 40 % 0.0 mm 341.0 W/m2 CLR
19:11 31.1 °C 16.3 °C 1014.1 hPa East 13.0 km/h 13.0 km/h 41 % 0.0 mm 325.0 W/m2 CLR
19:16 31.0 °C 15.8 °C 1014.1 hPa East 11.3 km/h 11.3 km/h 40 % 0.0 mm 309.0 W/m2 CLR
19:21 30.8 °C 15.7 °C 1014.1 hPa East 11.1 km/h 11.1 km/h 40 % 0.0 mm 294.0 W/m2 CLR
19:26 30.7 °C 15.9 °C 1014.1 hPa East 5.6 km/h 5.6 km/h 41 % 0.0 mm 279.0 W/m2 CLR
19:31 30.7 °C 15.9 °C 1014.1 hPa ESE 11.1 km/h 11.1 km/h 41 % 0.0 mm 264.0 W/m2 CLR
19:36 30.6 °C 15.8 °C 1014.1 hPa ESE 7.4 km/h 7.4 km/h 41 % 0.0 mm 250.0 W/m2 CLR
19:41 30.4 °C 15.7 °C 1014.1 hPa ENE 5.6 km/h 5.6 km/h 41 % 0.0 mm 232.0 W/m2 CLR
19:46 30.3 °C 15.6 °C 1014.1 hPa East 6.4 km/h 6.4 km/h 41 % 0.0 mm 218.0 W/m2 CLR
19:51 30.1 °C 15.4 °C 1014.1 hPa East 5.6 km/h 5.6 km/h 41 % 0.0 mm 202.0 W/m2 CLR
19:56 30.0 °C 15.3 °C 1014.1 hPa Calm     41 % 0.0 mm 185.0 W/m2 CLR
20:01 29.9 °C 15.6 °C 1014.4 hPa Calm     42 % 0.0 mm 165.0 W/m2 CLR
20:06 29.9 °C 15.6 °C 1014.4 hPa ESE 7.4 km/h 7.4 km/h 42 % 0.0 mm 149.0 W/m2 CLR
20:11 29.8 °C 15.6 °C 1014.4 hPa East 9.7 km/h 9.7 km/h 42 % 0.0 mm 134.0 W/m2 CLR
20:14 29.8 °C 15.6 °C 1014.1 hPa East 5.6 km/h 5.6 km/h 42 % 0.0 mm 125.0 W/m2 CLR
20:19 29.8 °C 15.5 °C 1014.4 hPa ESE 8.0 km/h 8.0 km/h 42 % 0.0 mm 109.0 W/m2 CLR
20:24 29.7 °C 15.4 °C 1014.4 hPa Calm     42 % 0.0 mm 95.0 W/m2 CLR
20:29 29.6 °C 15.3 °C 1014.4 hPa SE 7.4 km/h 7.4 km/h 42 % 0.0 mm 83.0 W/m2 CLR
20:35 29.4 °C 15.5 °C 1014.4 hPa Calm     43 % 0.0 mm 70.0 W/m2 FEW
20:40 29.3 °C 15.4 °C 1014.4 hPa Calm     43 % 0.0 mm 56.0 W/m2 SCT
20:45 29.2 °C 15.7 °C 1014.4 hPa East 5.6 km/h 5.6 km/h 44 % 0.0 mm 30.0 W/m2 BKN
20:50 28.9 °C 15.4 °C 1014.4 hPa East 7.4 km/h 7.4 km/h 44 % 0.0 mm 39.0 W/m2 BKN
20:54 28.7 °C 15.2 °C 1014.4 hPa East 5.6 km/h 5.6 km/h 44 % 0.0 mm 30.0 W/m2 BKN
21:00 28.4 °C 14.9 °C 1014.4 hPa ESE 9.3 km/h 9.3 km/h 44 % 0.0 mm 25.0 W/m2 BKN
21:05 28.1 °C 15.1 °C 1014.4 hPa East 1.9 km/h 1.9 km/h 45 % 0.0 mm 18.0 W/m2 BKN
21:10 27.8 °C 14.8 °C 1014.4 hPa ESE 5.6 km/h 5.6 km/h 45 % 0.0 mm 14.0 W/m2 BKN
21:15 27.6 °C 14.9 °C 1014.4 hPa Calm     46 % 0.0 mm 12.0 W/m2 BKN
21:20 27.4 °C 14.8 °C 1014.4 hPa Calm     46 % 0.0 mm 11.0 W/m2 BKN
21:25 27.2 °C 14.9 °C 1014.4 hPa Calm     47 % 0.0 mm 7.0 W/m2 BKN
21:30 27.1 °C 14.8 °C 1014.4 hPa Calm     47 % 0.0 mm 5.0 W/m2 OVC
21:35 27.0 °C 14.7 °C 1014.8 hPa Calm     47 % 0.0 mm 0.0 W/m2 OVC
21:40 26.8 °C 14.9 °C 1014.4 hPa Calm     48 % 0.0 mm 0.0 W/m2 OVC
21:45 26.7 °C 14.8 °C 1014.8 hPa Calm     48 % 0.0 mm 0.0 W/m2 CLR
21:50 26.7 °C 14.7 °C 1014.8 hPa Calm     48 % 0.0 mm 0.0 W/m2 CLR
21:55 26.4 °C 15.2 °C 1014.8 hPa Calm     50 % 0.0 mm 0.0 W/m2 CLR
22:00 26.3 °C 15.0 °C 1014.8 hPa Calm     50 % 0.0 mm 0.0 W/m2 CLR
22:05 26.1 °C 15.1 °C 1014.8 hPa Calm     51 % 0.0 mm 0.0 W/m2 CLR
22:10 25.8 °C 14.9 °C 1014.8 hPa Calm     51 % 0.0 mm 0.0 W/m2 CLR
22:15 25.6 °C 15.0 °C 1014.8 hPa Calm     52 % 0.0 mm 0.0 W/m2 CLR
22:20 25.6 °C 14.9 °C 1015.1 hPa Calm     52 % 0.0 mm 0.0 W/m2 CLR
22:25 25.4 °C 15.1 °C 1015.1 hPa Calm     53 % 0.0 mm 0.0 W/m2 CLR
22:30 25.3 °C 15.0 °C 1015.1 hPa Calm     53 % 0.0 mm 0.0 W/m2 CLR
22:35 25.2 °C 15.2 °C 1015.1 hPa Calm     54 % 0.0 mm 0.0 W/m2 CLR
22:40 25.0 °C 15.1 °C 1015.1 hPa Calm     54 % 0.0 mm 0.0 W/m2 CLR
22:45 24.9 °C 15.5 °C 1015.1 hPa Calm     56 % 0.0 mm 0.0 W/m2 CLR
22:50 24.7 °C 15.6 °C 1015.5 hPa Calm     57 % 0.0 mm 0.0 W/m2 CLR
22:55 24.5 °C 15.7 °C 1015.5 hPa Calm     58 % 0.0 mm 0.0 W/m2 CLR
23:00 24.3 °C 15.8 °C 1015.5 hPa Calm     59 % 0.0 mm 0.0 W/m2 CLR
23:05 24.1 °C 15.6 °C 1015.5 hPa Calm     59 % 0.0 mm 0.0 W/m2 CLR
23:10 23.9 °C 15.9 °C 1015.5 hPa Calm     61 % 0.0 mm 0.0 W/m2 CLR
23:15 23.8 °C 15.8 °C 1015.5 hPa Calm     61 % 0.0 mm 0.0 W/m2 CLR
23:20 23.6 °C 16.2 °C 1015.5 hPa Calm     63 % 0.0 mm 0.0 W/m2 CLR
23:25 23.4 °C 16.2 °C 1015.5 hPa Calm     64 % 0.0 mm 0.0 W/m2 CLR
23:35 23.1 °C 16.1 °C 1015.5 hPa Calm     65 % 0.0 mm 0.0 W/m2 CLR
23:40 23.0 °C 15.8 °C 1015.5 hPa Calm     64 % 0.0 mm 0.0 W/m2 CLR
23:45 22.9 °C 15.3 °C 1015.8 hPa Calm     62 % 0.0 mm 0.0 W/m2 CLR
23:50 22.9 °C 15.4 °C 1015.5 hPa Calm     63 % 0.0 mm 0.0 W/m2 CLR
23:55 22.8 °C 15.9 °C 1015.8 hPa Calm     65 % 0.0 mm 0.0 W/m2 CLR
Lo Temps de Massalio
Compliments of Weather Underground - 1.25 mb